Volver al catálogo

STARLINK-32822

ActivoComunicacionesVLEO
NORAD 62868·PAYLOAD·🇺🇸 United States

Lanzado Feb 1, 2025 desde Vandenberg Space Force Base

Loading…

Próximos Pases (próximas 24 horas)

TLE

ActualizadoSource: CelesTrak SupGP

Época: Sep 14, 2026, 21:13 UTC

1 62868C 25022Q   26257.88451389 -.00016417  00000+0 -48533-3 0  2572
2 62868  53.1586 327.6975 0001039  86.4271 171.7999 15.34381108    18

Sigue STARLINK-32822 en tiempo real con AllMySat

Download on the App Store